TimeEST,TemperatureF,Dew PointF,Humidity,Sea Level PressureIn,VisibilityMPH,Wind Direction,Wind SpeedMPH,Gust SpeedMPH,PrecipitationIn,Events,Conditions,WindDirDegrees,DateUTC
12:51 AM,41.0,28.9,62,30.63,10.0,NNE,3.5,-,N/A,,Clear,30,2012-11-18 05:51:00
1:51 AM,41.0,28.0,60,30.63,10.0,NNE,4.6,-,N/A,,Clear,30,2012-11-18 06:51:00
2:51 AM,39.9,27.0,60,30.63,10.0,NE,6.9,-,N/A,,Clear,40,2012-11-18 07:51:00
3:51 AM,39.9,28.0,63,30.63,10.0,Variable,4.6,-,N/A,,Clear,0,2012-11-18 08:51:00
4:51 AM,39.0,28.0,65,30.64,10.0,NE,4.6,-,N/A,,Clear,50,2012-11-18 09:51:00
5:51 AM,39.0,28.9,67,30.64,10.0,NNE,3.5,-,N/A,,Clear,20,2012-11-18 10:51:00
6:51 AM,37.9,30.0,73,30.66,10.0,East,6.9,-,N/A,,Clear,80,2012-11-18 11:51:00
7:51 AM,39.0,30.9,73,30.66,9.0,Variable,4.6,-,N/A,,Clear,0,2012-11-18 12:51:00
8:51 AM,41.0,32.0,70,30.67,9.0,Variable,5.8,-,N/A,,Clear,0,2012-11-18 13:51:00
9:51 AM,44.1,33.1,65,30.67,9.0,NE,10.4,-,N/A,,Clear,50,2012-11-18 14:51:00
10:51 AM,46.0,34.0,63,30.67,9.0,ENE,11.5,-,N/A,,Clear,60,2012-11-18 15:51:00
11:51 AM,48.0,35.1,61,30.63,10.0,ENE,8.1,-,N/A,,Clear,60,2012-11-18 16:51:00
12:51 PM,48.0,34.0,58,30.61,10.0,NE,6.9,-,N/A,,Clear,50,2012-11-18 17:51:00
1:51 PM,46.9,34.0,61,30.61,10.0,ENE,9.2,-,N/A,,Clear,60,2012-11-18 18:51:00
2:51 PM,46.9,34.0,61,30.61,10.0,Variable,6.9,-,N/A,,Clear,0,2012-11-18 19:51:00
3:51 PM,46.0,33.1,61,30.61,10.0,ENE,11.5,-,N/A,,Clear,70,2012-11-18 20:51:00
4:51 PM,46.0,33.1,61,30.60,10.0,ENE,8.1,-,N/A,,Clear,60,2012-11-18 21:51:00
5:51 PM,46.0,33.1,61,30.61,10.0,ENE,3.5,-,N/A,,Clear,70,2012-11-18 22:51:00
6:51 PM,45.0,33.1,63,30.61,10.0,Variable,3.5,-,N/A,,Clear,0,2012-11-18 23:51:00
7:51 PM,46.0,33.1,61,30.60,10.0,ENE,6.9,-,N/A,,Clear,70,2012-11-19 00:51:00
8:51 PM,44.1,33.1,65,30.60,10.0,Variable,5.8,-,N/A,,Partly Cloudy,0,2012-11-19 01:51:00
9:51 PM,45.0,34.0,65,30.59,10.0,Variable,3.5,-,N/A,,Mostly Cloudy,0,2012-11-19 02:51:00
10:51 PM,45.0,35.1,68,30.58,10.0,ENE,6.9,-,N/A,,Overcast,70,2012-11-19 03:51:00
11:51 PM,43.0,34.0,71,30.57,9.0,ENE,6.9,-,N/A,,Clear,70,2012-11-19 04:51:00